Year,Month,Day,Hour,Minute,Value (Times are PST for temperature in C)
2015,10,21,10,39,11.10
2015,10,21,10,40,11.20
2015,10,21,10,41,11.20
2015,10,21,10,42,11.20
2015,10,21,10,43,11.20
2015,10,21,10,44,11.20
2015,10,21,10,45,11.20
2015,10,21,10,46,11.20
2015,10,21,10,47,11.20
2015,10,21,10,48,11.20
2015,10,21,10,49,11.20
2015,10,21,10,50,11.20
2015,10,21,10,51,11.20
2015,10,21,10,52,11.20
2015,10,21,10,53,11.30
2015,10,21,10,54,11.30
2015,10,21,10,55,11.30
2015,10,21,10,56,11.30
2015,10,21,10,57,11.30
2015,10,21,10,58,11.30
2015,10,21,10,59,11.40
2015,10,21,11,00,11.40
2015,10,21,11,01,11.40
2015,10,21,11,02,11.40
2015,10,21,11,03,11.40
2015,10,21,11,04,11.40
2015,10,21,11,05,11.40
2015,10,21,11,06,11.50
2015,10,21,11,07,11.40
2015,10,21,11,08,11.40
2015,10,21,11,09,11.40
2015,10,21,11,10,11.40
2015,10,21,11,11,11.40
2015,10,21,11,12,11.50
2015,10,21,11,13,11.50
2015,10,21,11,14,11.40
2015,10,21,11,15,11.40
2015,10,21,11,16,11.40
2015,10,21,11,17,11.40
2015,10,21,11,18,11.40
2015,10,21,11,19,11.40
2015,10,21,11,20,11.40
2015,10,21,11,21,11.40
2015,10,21,11,22,11.40
2015,10,21,11,23,11.40
2015,10,21,11,24,11.40
2015,10,21,11,25,11.40
2015,10,21,11,26,11.40
2015,10,21,11,27,11.40
2015,10,21,11,28,11.40
2015,10,21,11,29,11.40
2015,10,21,11,30,11.40
2015,10,21,11,31,11.40
2015,10,21,11,32,11.40
2015,10,21,11,33,11.40
2015,10,21,11,34,11.40
2015,10,21,11,35,11.30
2015,10,21,11,36,11.30
2015,10,21,11,37,11.30
2015,10,21,11,38,11.30
2015,10,21,11,39,11.30
2015,10,21,11,40,11.30
2015,10,21,11,41,11.30
2015,10,21,11,42,11.30
2015,10,21,11,43,11.40
2015,10,21,11,44,11.30
2015,10,21,11,45,11.40
2015,10,21,11,46,11.40
2015,10,21,11,47,11.40
2015,10,21,11,48,11.40
2015,10,21,11,49,11.40
2015,10,21,11,50,11.40
2015,10,21,11,51,11.40
2015,10,21,11,52,11.40
2015,10,21,11,53,11.40
2015,10,21,11,54,11.40
2015,10,21,11,55,11.40
2015,10,21,11,56,11.40
2015,10,21,11,57,11.40
2015,10,21,11,58,11.40
2015,10,21,11,59,11.50
2015,10,21,12,00,11.50
2015,10,21,12,01,11.60
2015,10,21,12,02,11.60
2015,10,21,12,03,11.60
2015,10,21,12,04,11.60
2015,10,21,12,05,11.60
2015,10,21,12,06,11.70
2015,10,21,12,07,11.70
2015,10,21,12,08,11.60
2015,10,21,12,09,11.60
2015,10,21,12,10,11.60
2015,10,21,12,11,11.60
2015,10,21,12,12,11.60
2015,10,21,12,13,11.60
2015,10,21,12,14,11.70
2015,10,21,12,15,11.70
2015,10,21,12,16,11.70
2015,10,21,12,17,11.70
2015,10,21,12,18,11.70
2015,10,21,12,19,11.70
2015,10,21,12,20,11.70
2015,10,21,12,21,11.70
2015,10,21,12,22,11.70
2015,10,21,12,23,11.70
2015,10,21,12,24,11.70
2015,10,21,12,25,11.70
2015,10,21,12,26,11.70
2015,10,21,12,27,11.70
2015,10,21,12,28,11.70
2015,10,21,12,29,11.70
2015,10,21,12,30,11.70
2015,10,21,12,31,11.70
2015,10,21,12,32,11.80
2015,10,21,12,33,11.80
2015,10,21,12,34,11.80
2015,10,21,12,35,11.80
2015,10,21,12,36,11.80
2015,10,21,12,37,11.80
2015,10,21,12,38,11.80
2015,10,21,12,39,11.80
2015,10,21,12,40,11.80
2015,10,21,12,41,11.80
2015,10,21,12,42,11.80
2015,10,21,12,43,11.80
2015,10,21,12,44,11.80
2015,10,21,12,45,11.80
2015,10,21,12,46,11.80
2015,10,21,12,47,11.80
2015,10,21,12,48,11.80
2015,10,21,12,49,11.80
2015,10,21,12,50,11.80
2015,10,21,12,51,11.80
2015,10,21,12,52,11.80
2015,10,21,12,53,11.80
2015,10,21,12,54,11.80
2015,10,21,12,55,11.80
2015,10,21,12,56,11.90
2015,10,21,12,57,11.90
2015,10,21,12,58,11.90
2015,10,21,12,59,12.00
2015,10,21,13,00,12.00
2015,10,21,13,01,12.00
2015,10,21,13,02,12.10
2015,10,21,13,03,12.10
2015,10,21,13,04,12.10
2015,10,21,13,05,12.10
2015,10,21,13,06,12.10
2015,10,21,13,07,12.10
2015,10,21,13,08,12.10
2015,10,21,13,09,12.00
2015,10,21,13,10,12.00
2015,10,21,13,11,12.00
2015,10,21,13,12,12.00
2015,10,21,13,13,12.00
2015,10,21,13,14,12.10
2015,10,21,13,15,12.10
2015,10,21,13,16,12.10
2015,10,21,13,17,12.10
2015,10,21,13,18,12.10
2015,10,21,13,19,12.10
2015,10,21,13,20,12.10
2015,10,21,13,21,12.10
2015,10,21,13,22,12.10
2015,10,21,13,23,12.10
2015,10,21,13,24,12.10
2015,10,21,13,25,12.10
2015,10,21,13,26,12.10
2015,10,21,13,27,12.10
2015,10,21,13,28,12.20
2015,10,21,13,29,12.20
2015,10,21,13,30,12.20
2015,10,21,13,31,12.20
2015,10,21,13,32,12.30
2015,10,21,13,33,12.30
2015,10,21,13,34,12.30
2015,10,21,13,35,12.30
2015,10,21,13,36,12.30
2015,10,21,13,37,12.30
2015,10,21,13,38,12.40
2015,10,21,13,39,12.40
2015,10,21,13,40,12.40
2015,10,21,13,41,12.50
2015,10,21,13,42,12.50
2015,10,21,13,43,12.50
2015,10,21,13,44,12.60
2015,10,21,13,45,12.60
2015,10,21,13,46,12.60
2015,10,21,13,47,12.70
2015,10,21,13,48,12.70
2015,10,21,13,49,12.80
2015,10,21,13,50,12.80
2015,10,21,13,51,12.90
2015,10,21,13,52,13.00
2015,10,21,13,53,13.10
2015,10,21,13,54,13.10
2015,10,21,13,55,13.20
2015,10,21,13,56,13.30
2015,10,21,13,57,13.40
2015,10,21,13,58,13.50
2015,10,21,13,59,13.70
2015,10,21,14,00,13.80
2015,10,21,14,01,13.90
2015,10,21,14,02,13.90
2015,10,21,14,03,13.90
2015,10,21,14,04,14.00
2015,10,21,14,05,14.00
2015,10,21,14,06,14.00
2015,10,21,14,07,14.00
2015,10,21,14,08,14.00
2015,10,21,14,09,14.00
2015,10,21,14,10,14.00
2015,10,21,14,11,14.00
2015,10,21,14,12,13.90
2015,10,21,14,13,13.90
2015,10,21,14,14,13.90
2015,10,21,14,15,14.00
2015,10,21,14,16,14.10
2015,10,21,14,17,14.10
2015,10,21,14,18,14.10
2015,10,21,14,19,14.10
2015,10,21,14,20,14.10
2015,10,21,14,21,14.00
2015,10,21,14,22,14.00
2015,10,21,14,23,14.00
2015,10,21,14,24,13.90
2015,10,21,14,25,14.00
2015,10,21,14,26,14.00
2015,10,21,14,27,14.10
2015,10,21,14,28,14.10
2015,10,21,14,29,14.20
2015,10,21,14,30,14.20
2015,10,21,14,31,14.20
2015,10,21,14,32,14.20
2015,10,21,14,33,14.20
2015,10,21,14,34,14.20
2015,10,21,14,35,14.30
2015,10,21,14,36,14.30
2015,10,21,14,37,14.30
2015,10,21,14,38,14.30
2015,10,21,14,39,14.30
2015,10,21,14,40,14.30
2015,10,21,14,41,14.40
2015,10,21,14,42,14.40
2015,10,21,14,43,14.40
2015,10,21,14,44,14.30
2015,10,21,14,45,14.30
2015,10,21,14,46,14.20
2015,10,21,14,47,14.10
2015,10,21,14,48,14.10
2015,10,21,14,49,14.10
2015,10,21,14,50,14.20
2015,10,21,14,51,14.20
2015,10,21,14,52,14.20
2015,10,21,14,53,14.20
2015,10,21,14,54,14.20
2015,10,21,14,55,14.20
2015,10,21,14,56,14.10
2015,10,21,14,57,14.10
2015,10,21,14,58,14.00
2015,10,21,14,59,14.00
2015,10,21,15,00,14.00
2015,10,21,15,01,14.10
2015,10,21,15,02,14.10
2015,10,21,15,03,14.20
2015,10,21,15,04,14.20
2015,10,21,15,05,14.20
2015,10,21,15,06,14.30
2015,10,21,15,07,14.20
2015,10,21,15,08,14.20
2015,10,21,15,09,14.20
2015,10,21,15,10,14.20
2015,10,21,15,11,14.10
2015,10,21,15,12,14.10
2015,10,21,15,13,14.10
2015,10,21,15,14,14.00
2015,10,21,15,15,14.00
2015,10,21,15,16,14.00
2015,10,21,15,17,13.90
2015,10,21,15,18,13.90
2015,10,21,15,19,13.90
2015,10,21,15,20,13.90
2015,10,21,15,21,13.90
2015,10,21,15,22,13.90
2015,10,21,15,23,13.90
2015,10,21,15,24,13.90
2015,10,21,15,25,13.90
2015,10,21,15,26,13.90
2015,10,21,15,27,13.90
2015,10,21,15,28,13.90
2015,10,21,15,29,13.80
2015,10,21,15,30,13.80
2015,10,21,15,31,13.80
2015,10,21,15,32,13.70
2015,10,21,15,33,13.60
2015,10,21,15,34,13.60
2015,10,21,15,35,13.60
2015,10,21,15,36,13.60
2015,10,21,15,37,13.50
2015,10,21,15,38,13.40
2015,10,21,15,39,13.40
2015,10,21,15,40,13.30
2015,10,21,15,41,13.20
2015,10,21,15,42,13.20
2015,10,21,15,43,13.20
2015,10,21,15,44,13.20
2015,10,21,15,45,13.10
2015,10,21,15,46,13.10
2015,10,21,15,47,13.10
2015,10,21,15,48,13.10
2015,10,21,15,49,13.10
2015,10,21,15,50,13.10
2015,10,21,15,51,13.10
2015,10,21,15,52,13.10
2015,10,21,15,53,13.20
2015,10,21,15,54,13.20
2015,10,21,15,55,13.20
2015,10,21,15,56,13.20
2015,10,21,15,57,13.20
2015,10,21,15,58,13.20
2015,10,21,15,59,13.20
2015,10,21,16,00,13.20
2015,10,21,16,01,13.20
2015,10,21,16,02,13.10
2015,10,21,16,03,13.10
2015,10,21,16,04,13.10
2015,10,21,16,05,13.00
2015,10,21,16,06,13.00
2015,10,21,16,07,13.00
2015,10,21,16,08,13.10
2015,10,21,16,09,13.10
2015,10,21,16,10,13.10
2015,10,21,16,11,13.10
2015,10,21,16,12,13.10
2015,10,21,16,13,13.20
2015,10,21,16,14,13.20
2015,10,21,16,15,13.20
2015,10,21,16,16,13.20
2015,10,21,16,17,13.20
2015,10,21,16,18,13.20
2015,10,21,16,19,13.10
2015,10,21,16,20,13.10
2015,10,21,16,21,13.10
2015,10,21,16,22,13.10
2015,10,21,16,23,13.10
2015,10,21,16,24,13.10
2015,10,21,16,25,13.10
2015,10,21,16,26,13.10
2015,10,21,16,27,13.10
2015,10,21,16,28,13.10
2015,10,21,16,29,13.10
2015,10,21,16,30,13.10
2015,10,21,16,31,13.00
2015,10,21,16,32,13.00
2015,10,21,16,33,12.90
2015,10,21,16,34,12.90
2015,10,21,16,35,12.80
2015,10,21,16,36,12.80
2015,10,21,16,37,12.80
2015,10,21,16,38,12.80
2015,10,21,16,39,12.80
2015,10,21,16,40,12.80
2015,10,21,16,41,12.70
2015,10,21,16,42,12.70
2015,10,21,16,43,12.70
2015,10,21,16,44,12.70
2015,10,21,16,45,12.70
2015,10,21,16,46,12.70
2015,10,21,16,47,12.60
2015,10,21,16,48,12.60
2015,10,21,16,49,12.60
2015,10,21,16,50,12.60
2015,10,21,16,51,12.60
2015,10,21,16,52,12.60
2015,10,21,16,53,12.60
2015,10,21,16,54,12.50
2015,10,21,16,55,12.50
2015,10,21,16,56,12.50
2015,10,21,16,57,12.40
2015,10,21,16,58,12.40
2015,10,21,16,59,12.40
2015,10,21,17,00,12.40
2015,10,21,17,01,12.40
2015,10,21,17,02,12.40
2015,10,21,17,03,12.40
2015,10,21,17,04,12.40
2015,10,21,17,05,12.40
2015,10,21,17,06,12.40
2015,10,21,17,07,12.40
2015,10,21,17,08,12.30
2015,10,21,17,09,12.30
2015,10,21,17,10,12.30
2015,10,21,17,11,12.30
2015,10,21,17,12,12.40
2015,10,21,17,13,12.40
2015,10,21,17,14,12.40
2015,10,21,17,15,12.40
2015,10,21,17,16,12.40
2015,10,21,17,17,12.40
2015,10,21,17,18,12.40
2015,10,21,17,19,12.30
2015,10,21,17,20,12.30
2015,10,21,17,21,12.30
2015,10,21,17,22,12.30
2015,10,21,17,23,12.30
2015,10,21,17,24,12.30
2015,10,21,17,25,12.30
2015,10,21,17,26,12.30
2015,10,21,17,27,12.30
2015,10,21,17,28,12.30
2015,10,21,17,29,12.30
2015,10,21,17,30,12.30
2015,10,21,17,31,12.30
2015,10,21,17,32,12.30
2015,10,21,17,33,12.30
2015,10,21,17,34,12.30
2015,10,21,17,35,12.30
2015,10,21,17,36,12.30
2015,10,21,17,37,12.30
2015,10,21,17,38,12.30
2015,10,21,17,39,12.30
2015,10,21,17,40,12.30
2015,10,21,17,41,12.30
2015,10,21,17,42,12.30
2015,10,21,17,43,12.30
2015,10,21,17,44,12.30
2015,10,21,17,45,12.30
2015,10,21,17,46,12.30
2015,10,21,17,47,12.30
2015,10,21,17,48,12.30
2015,10,21,17,49,12.30
2015,10,21,17,50,12.30
2015,10,21,17,51,12.30
2015,10,21,17,52,12.30
2015,10,21,17,53,12.30
2015,10,21,17,54,12.30
2015,10,21,17,55,12.30
2015,10,21,17,56,12.30
2015,10,21,17,57,12.30
2015,10,21,17,58,12.30
2015,10,21,17,59,12.30
2015,10,21,18,00,12.30
2015,10,21,18,01,12.30
2015,10,21,18,02,12.30
2015,10,21,18,03,12.30
2015,10,21,18,04,12.30
2015,10,21,18,05,12.30
2015,10,21,18,06,12.30
2015,10,21,18,07,12.20
2015,10,21,18,08,12.20
2015,10,21,18,09,12.20
2015,10,21,18,10,12.20
2015,10,21,18,11,12.20
2015,10,21,18,12,12.20
2015,10,21,18,13,12.20
2015,10,21,18,14,12.20
2015,10,21,18,15,12.20
2015,10,21,18,16,12.20
2015,10,21,18,17,12.20
2015,10,21,18,18,12.20
2015,10,21,18,19,12.20
2015,10,21,18,20,12.20
2015,10,21,18,21,12.20
2015,10,21,18,22,12.20
2015,10,21,18,23,12.20
2015,10,21,18,24,12.20
2015,10,21,18,25,12.20
2015,10,21,18,26,12.20
2015,10,21,18,27,12.20
2015,10,21,18,28,12.20
2015,10,21,18,29,12.20
2015,10,21,18,30,12.20
2015,10,21,18,31,12.20
2015,10,21,18,32,12.20
2015,10,21,18,33,12.20
2015,10,21,18,34,12.20
2015,10,21,18,35,12.20
2015,10,21,18,36,12.20
2015,10,21,18,37,12.20
2015,10,21,18,38,12.20
2015,10,21,18,39,12.20
2015,10,21,18,40,12.20
2015,10,21,18,41,12.20
2015,10,21,18,42,12.20
2015,10,21,18,43,12.20
2015,10,21,18,44,12.20
2015,10,21,18,45,12.20
2015,10,21,18,46,12.20
2015,10,21,18,47,12.20
2015,10,21,18,48,12.20
2015,10,21,18,49,12.10
2015,10,21,18,50,12.10
2015,10,21,18,51,12.10
2015,10,21,18,52,12.10
2015,10,21,18,53,12.10
2015,10,21,18,54,12.10
2015,10,21,18,55,12.10
2015,10,21,18,56,12.10
2015,10,21,18,57,12.10
2015,10,21,18,58,12.00
2015,10,21,18,59,12.00
2015,10,21,19,00,12.00
2015,10,21,19,01,12.00
2015,10,21,19,02,11.90
2015,10,21,19,03,11.90
2015,10,21,19,04,11.90
2015,10,21,19,05,11.90
2015,10,21,19,06,11.90
2015,10,21,19,07,11.80
2015,10,21,19,08,11.80
2015,10,21,19,09,11.80
2015,10,21,19,10,11.80
2015,10,21,19,11,11.70
2015,10,21,19,12,11.70
2015,10,21,19,13,11.70
2015,10,21,19,14,11.70
2015,10,21,19,15,11.70
2015,10,21,19,16,11.70
2015,10,21,19,17,11.70
2015,10,21,19,18,11.70
2015,10,21,19,19,11.70
2015,10,21,19,20,11.70
2015,10,21,19,21,11.70
2015,10,21,19,22,11.70
2015,10,21,19,23,11.70
2015,10,21,19,24,11.60
2015,10,21,19,25,11.60
2015,10,21,19,26,11.60
2015,10,21,19,27,11.60
2015,10,21,19,28,11.60
2015,10,21,19,29,11.60
2015,10,21,19,30,11.50
2015,10,21,19,31,11.50
2015,10,21,19,32,11.50
2015,10,21,19,33,11.40
2015,10,21,19,34,11.40
2015,10,21,19,35,11.40
2015,10,21,19,36,11.40
2015,10,21,19,37,11.40
2015,10,21,19,38,11.30
2015,10,21,19,39,11.30
2015,10,21,19,40,11.30
2015,10,21,19,41,11.30
2015,10,21,19,42,11.20
2015,10,21,19,43,11.20
2015,10,21,19,44,11.20
2015,10,21,19,45,11.20
2015,10,21,19,46,11.10
2015,10,21,19,47,11.10
2015,10,21,19,48,11.10
2015,10,21,19,49,11.00
2015,10,21,19,50,11.00
2015,10,21,19,51,11.00
2015,10,21,19,52,10.90
2015,10,21,19,53,10.90
2015,10,21,19,54,10.90
2015,10,21,19,55,10.90
2015,10,21,19,56,10.90
2015,10,21,19,57,10.80
2015,10,21,19,58,10.80
2015,10,21,19,59,10.70
2015,10,21,20,00,10.70
2015,10,21,20,01,10.60
2015,10,21,20,02,10.60
2015,10,21,20,03,10.60
2015,10,21,20,04,10.50
2015,10,21,20,05,10.50
2015,10,21,20,06,10.40
2015,10,21,20,07,10.40
2015,10,21,20,08,10.40
2015,10,21,20,09,10.40
2015,10,21,20,10,10.40
2015,10,21,20,11,10.40
2015,10,21,20,12,10.30
2015,10,21,20,13,10.30
2015,10,21,20,14,10.30
2015,10,21,20,15,10.30
2015,10,21,20,16,10.30
2015,10,21,20,17,10.30
2015,10,21,20,18,10.30
2015,10,21,20,19,10.30
2015,10,21,20,20,10.30
2015,10,21,20,21,10.30
2015,10,21,20,22,10.40
2015,10,21,20,23,10.40
2015,10,21,20,24,10.40
2015,10,21,20,25,10.50
2015,10,21,20,26,10.50
2015,10,21,20,27,10.50
2015,10,21,20,28,10.60
2015,10,21,20,29,10.60
2015,10,21,20,30,10.60
2015,10,21,20,31,10.60
2015,10,21,20,32,10.60
2015,10,21,20,33,10.60
2015,10,21,20,34,10.70
2015,10,21,20,35,10.70
2015,10,21,20,36,10.70
2015,10,21,20,37,10.80
2015,10,21,20,38,10.80
2015,10,21,20,39,10.90
2015,10,21,20,40,10.90
2015,10,21,20,41,10.90
2015,10,21,20,42,10.90
2015,10,21,20,43,10.90
2015,10,21,20,44,10.90
2015,10,21,20,45,10.90
2015,10,21,20,46,11.00
2015,10,21,20,47,11.00
2015,10,21,20,48,11.00
2015,10,21,20,49,10.90
2015,10,21,20,50,10.90
2015,10,21,20,51,10.90
2015,10,21,20,52,10.90
2015,10,21,20,53,10.90
2015,10,21,20,54,10.90
2015,10,21,20,55,10.90
2015,10,21,20,56,10.90
2015,10,21,20,57,10.90
2015,10,21,20,58,10.90
2015,10,21,20,59,10.90
2015,10,21,21,00,10.90
2015,10,21,21,01,10.90
2015,10,21,21,02,10.80
2015,10,21,21,03,10.80
2015,10,21,21,04,10.80
2015,10,21,21,05,10.80
2015,10,21,21,06,10.80
2015,10,21,21,07,10.80
2015,10,21,21,08,10.80
2015,10,21,21,09,10.70
2015,10,21,21,10,10.70
2015,10,21,21,11,10.70
2015,10,21,21,12,10.70
2015,10,21,21,13,10.70
2015,10,21,21,14,10.60
2015,10,21,21,15,10.60
2015,10,21,21,16,10.60
2015,10,21,21,17,10.60
2015,10,21,21,18,10.60
2015,10,21,21,19,10.60
2015,10,21,21,20,10.60
2015,10,21,21,21,10.60
2015,10,21,21,22,10.60
2015,10,21,21,23,10.60
2015,10,21,21,24,10.60
2015,10,21,21,25,10.70
2015,10,21,21,26,10.70
2015,10,21,21,27,10.70
2015,10,21,21,28,10.70
2015,10,21,21,29,10.70
2015,10,21,21,30,10.60
2015,10,21,21,31,10.60
2015,10,21,21,32,10.60
2015,10,21,21,33,10.60
2015,10,21,21,34,10.60
2015,10,21,21,35,10.60
2015,10,21,21,36,10.50
2015,10,21,21,37,10.50
2015,10,21,21,38,10.50
2015,10,21,21,39,10.40
2015,10,21,21,40,10.40
2015,10,21,21,41,10.40
2015,10,21,21,42,10.40
2015,10,21,21,43,10.40
2015,10,21,21,44,10.30
2015,10,21,21,45,10.30
2015,10,21,21,46,10.30
2015,10,21,21,47,10.30
2015,10,21,21,48,10.30
2015,10,21,21,49,10.20
2015,10,21,21,50,10.20
2015,10,21,21,51,10.10
2015,10,21,21,52,10.10
2015,10,21,21,53,10.10
2015,10,21,21,54,10.10
2015,10,21,21,55,10.10
2015,10,21,21,56,10.00
2015,10,21,21,57,10.00
2015,10,21,21,58,10.00
2015,10,21,21,59,10.00
2015,10,21,22,00,10.00
2015,10,21,22,01,10.00
2015,10,21,22,02,10.00
2015,10,21,22,03,10.00
2015,10,21,22,04,10.00
2015,10,21,22,05,10.10
2015,10,21,22,06,10.00
2015,10,21,22,07,10.00
2015,10,21,22,08,10.00
2015,10,21,22,09,10.00
2015,10,21,22,10,10.00
2015,10,21,22,11,10.00
2015,10,21,22,12,10.00
2015,10,21,22,13,10.10
2015,10,21,22,14,10.10
2015,10,21,22,15,10.10
2015,10,21,22,16,10.10
2015,10,21,22,17,10.10
2015,10,21,22,18,10.20
2015,10,21,22,19,10.20
2015,10,21,22,20,10.20
2015,10,21,22,21,10.30
2015,10,21,22,22,10.30
2015,10,21,22,23,10.30
2015,10,21,22,24,10.30
2015,10,21,22,25,10.30
2015,10,21,22,26,10.30
2015,10,21,22,27,10.30
2015,10,21,22,28,10.30
2015,10,21,22,29,10.30
2015,10,21,22,30,10.30
2015,10,21,22,31,10.30
2015,10,21,22,32,10.30
2015,10,21,22,33,10.30
2015,10,21,22,34,10.30
2015,10,21,22,35,10.30
2015,10,21,22,36,10.30
2015,10,21,22,37,10.30
2015,10,21,22,38,10.30
2015,10,21,22,39,10.30
2015,10,21,22,40,10.30
2015,10,21,22,41,10.30
2015,10,21,22,42,10.30
2015,10,21,22,43,10.30
2015,10,21,22,44,10.30
2015,10,21,22,45,10.30
2015,10,21,22,46,10.30
2015,10,21,22,47,10.30
2015,10,21,22,48,10.20
2015,10,21,22,49,10.20
2015,10,21,22,50,10.20
2015,10,21,22,51,10.20
2015,10,21,22,52,10.20
2015,10,21,22,53,10.20
2015,10,21,22,54,10.20
2015,10,21,22,55,10.20
2015,10,21,22,56,10.20
2015,10,21,22,57,10.20
2015,10,21,22,58,10.20
2015,10,21,22,59,10.10
2015,10,21,23,00,10.10
2015,10,21,23,01,10.10
2015,10,21,23,02,10.10
2015,10,21,23,03,10.10
2015,10,21,23,04,10.10
2015,10,21,23,05,10.10
2015,10,21,23,06,10.20
2015,10,21,23,07,10.20
2015,10,21,23,08,10.20
2015,10,21,23,09,10.20
2015,10,21,23,10,10.20
2015,10,21,23,11,10.20
2015,10,21,23,12,10.20
2015,10,21,23,13,10.20
2015,10,21,23,14,10.20
2015,10,21,23,15,10.20
2015,10,21,23,16,10.20
2015,10,21,23,17,10.20
2015,10,21,23,18,10.20
2015,10,21,23,19,10.20
2015,10,21,23,20,10.20
2015,10,21,23,21,10.20
2015,10,21,23,22,10.20
2015,10,21,23,23,10.20
2015,10,21,23,24,10.20
2015,10,21,23,25,10.20
2015,10,21,23,26,10.20
2015,10,21,23,27,10.20
2015,10,21,23,28,10.10
2015,10,21,23,29,10.10
2015,10,21,23,30,10.10
2015,10,21,23,31,10.10
2015,10,21,23,32,10.10
2015,10,21,23,33,10.10
2015,10,21,23,34,10.10
2015,10,21,23,35,10.00
2015,10,21,23,36,10.00
2015,10,21,23,37,10.00
2015,10,21,23,38,9.90
2015,10,21,23,39,9.90
2015,10,21,23,40,9.80
2015,10,21,23,41,9.80
2015,10,21,23,42,9.80
2015,10,21,23,43,9.80
2015,10,21,23,44,9.70
2015,10,21,23,45,9.70
2015,10,21,23,46,9.70
2015,10,21,23,47,9.70
2015,10,21,23,48,9.60
2015,10,21,23,49,9.60
2015,10,21,23,50,9.60
2015,10,21,23,51,9.60
2015,10,21,23,52,9.50
2015,10,21,23,53,9.50
2015,10,21,23,54,9.50
2015,10,21,23,55,9.40
2015,10,21,23,56,9.40
2015,10,21,23,57,9.40
2015,10,21,23,58,9.40
2015,10,21,23,59,9.40
